Wind_Speed
34 29 27 26 28 30 28 27 27 27 27 26 25 23 22 20 19 19 17 17 16 16 17 17 17 17 16 15 15 14 13 12 11 11 11 12 12 12 12 12 12 12 12 12 12 12 12 12 12 11 11 11 11 12 11 10 10 10 9 9 8 8 8
37 33 29 28 29 30 29 29 28 27 28 27 26 24 23 22 20 19 18 17 17 16 16 17 17 17 17 16 16 15 14 13 12 12 12 12 12 12 12 12 12 12 12 12 12 12 13 13 12 12 11 11 11 12 12 12 11 11 10 9 9 8 8
37 35 32 30 31 31 31 30 29 28 28 28 27 26 24 23 21 20 19 18 17 17 16 16 17 17 17 17 16 16 15 14 13 13 13 12 12 12 12 12 12 12 12 13 13 13 13 13 13 13 13 12 12 12 12 12 12 12 11 10 10 9 8
33 33 32 32 33 33 32 31 29 28 28 28 27 26 25 23 21 19 18 18 18 18 16 16 15 16 16 16 16 16 15 15 14 13 14 14 13 14 13 13 13 12 13 13 13 13 13 14 13 13 14 13 13 12 12 12 12 12 12 11 11 11 10
28 30 32 36 37 35 32 31 29 27 28 27 27 26 25 23 22 19 18 19 19 18 17 16 16 16 16 16 15 16 15 15 15 14 15 15 15 15 15 14 14 14 14 14 14 14 14 14 13 13 14 13 14 14 13 13 13 13 13 12 12 12 11
25 27 32 37 39 37 34 32 29 28 29 28 27 27 25 23 22 20 19 19 19 19 18 18 18 17 16 15 15 15 15 15 16 15 16 16 16 16 16 16 16 16 16 16 16 16 15 15 15 14 14 14 14 15 15 15 14 14 14 13 13 13 12
25 27 30 33 36 39 38 34 30 29 30 29 26 26 26 24 22 21 20 19 19 19 18 18 18 18 17 17 16 16 16 16 16 16 16 16 17 17 17 17 17 17 17 17 18 18 17 17 16 16 16 15 16 16 16 16 16 15 15 14 14 14 14
20 24 28 30 34 39 41 38 34 30 31 31 27 25 26 24 23 22 21 20 19 19 19 18 18 18 17 17 17 17 16 16 16 16 17 17 17 17 17 17 17 17 17 18 18 19 19 18 18 18 18 17 17 17 17 18 17 16 16 16 15 15 15
15 17 23 28 34 38 40 40 39 35 34 33 28 26 26 25 23 23 22 20 20 20 19 18 17 18 17 17 18 18 18 18 17 17 17 17 17 17 17 18 18 18 18 18 19 20 20 20 20 20 20 19 20 19 19 19 19 19 18 18 17 16 16
15 13 17 24 31 36 39 42 42 39 36 32 28 28 28 27 26 24 23 22 21 21 19 17 17 18 17 18 18 19 19 19 18 18 17 17 18 18 18 18 19 19 19 19 20 21 22 22 22 23 22 21 21 21 20 21 20 20 19 19 19 18 17
15 12 14 21 29 36 40 44 44 41 37 33 30 30 29 28 27 25 25 24 23 22 21 19 19 19 19 19 19 20 20 20 20 20 19 18 18 18 18 19 19 20 20 20 20 21 23 23 24 24 24 23 22 22 22 21 21 21 20 20 20 19 19
14 12 12 16 26 35 39 41 42 39 37 35 33 32 30 29 28 27 27 26 25 24 23 21 21 21 21 20 20 21 21 21 23 23 22 21 21 19 19 20 20 21 22 22 21 22 22 24 24 24 24 23 23 23 23 22 22 22 21 21 21 21 20
13 13 10 9 17 28 34 36 37 37 37 36 34 33 32 31 29 27 27 27 27 27 25 24 23 23 23 22 22 23 22 22 24 23 23 23 22 21 21 21 21 22 22 22 23 23 22 22 23 23 22 22 22 23 23 23 23 23 22 22 22 21 21
13 11 9 8 10 20 28 31 32 33 35 34 33 32 32 32 30 28 28 28 28 28 27 26 26 25 25 25 25 26 24 24 23 23 23 24 24 23 23 24 23 23 24 25 24 24 21 21 23 22 21 21 21 22 23 23 23 24 24 23 22 22 22
12 8 8 9 12 17 22 25 26 26 29 29 29 30 31 33 32 30 29 29 29 29 29 29 29 29 29 29 28 28 28 26 24 23 24 25 26 25 25 26 25 26 28 27 25 24 23 21 22 22 22 22 21 21 22 23 23 24 26 24 22 23 23
11 9 8 9 13 15 14 13 14 17 21 24 26 30 31 32 33 31 30 30 30 30 30 30 31 31 32 32 31 31 31 30 28 27 27 27 27 26 25 26 27 28 29 26 24 25 25 22 21 21 22 22 21 20 21 23 24 26 26 23 21 22 22
13 13 14 11 12 16 15 12 10 10 17 21 23 27 30 30 31 31 30 30 30 31 31 31 31 31 33 33 33 34 34 33 31 31 31 30 29 28 26 26 27 28 30 30 28 25 24 22 22 22 23 22 21 21 22 25 26 25 22 20 20 21 20
12 12 18 16 14 19 20 18 16 14 17 17 16 18 25 29 30 29 29 29 29 30 30 31 31 31 32 33 34 36 36 35 34 34 34 33 32 31 29 27 27 27 28 29 30 29 26 24 23 24 24 24 23 24 26 27 25 22 19 17 19 21 20
10 8 14 15 16 21 22 19 18 18 17 17 15 11 11 17 22 24 25 26 27 27 28 28 30 30 31 32 34 36 37 36 36 37 37 36 35 33 32 31 29 28 27 26 26 27 28 29 28 27 25 25 28 29 29 27 24 21 20 19 18 19 20
5 5 9 14 15 19 20 19 19 20 19 20 19 16 14 14 17 22 26 28 29 30 30 32 33 34 34 35 36 36 37 37 38 38 38 37 37 36 35 34 32 31 29 28 26 25 27 30 32 30 27 27 30 30 28 26 23 22 22 22 20 19 20
5 5 8 12 12 13 16 17 18 17 18 20 21 21 20 20 22 25 27 28 29 30 32 35 36 36 36 36 36 35 34 35 36 37 37 37 37 37 36 36 35 34 33 31 29 28 29 31 32 31 29 28 29 30 28 26 24 23 23 23 22 22 22
7 7 7 9 10 10 11 13 15 15 17 18 19 21 22 22 23 24 25 25 26 27 29 30 32 32 32 33 33 33 32 32 33 34 34 36 37 37 37 36 36 36 36 34 33 33 33 34 32 31 31 30 29 29 29 27 26 25 24 24 26 26 26
9 7 7 8 10 10 10 11 13 13 15 16 16 18 19 19 20 21 22 22 23 24 26 27 28 28 29 30 31 32 32 32 31 30 29 33 36 37 37 37 37 39 39 37 36 35 35 35 34 33 32 30 29 29 28 28 27 26 25 26 27 28 28
8 7 7 7 7 9 9 9 10 10 11 12 14 15 16 16 17 18 19 20 21 23 24 25 26 26 26 26 27 28 28 29 30 28 28 30 32 33 36 38 39 40 41 40 37 35 35 35 35 35 34 31 29 29 29 29 28 27 27 27 28 29 28
7 6 6 5 6 7 7 7 8 8 9 9 10 11 12 13 14 14 15 16 18 20 21 22 23 23 22 22 21 22 22 24 25 25 26 27 28 29 32 37 40 41 41 40 38 35 34 34 33 35 36 33 30 30 30 29 27 28 28 29 29 29 29
9 6 5 5 5 5 5 6 6 6 6 6 6 7 8 10 11 11 11 12 14 16 17 18 18 18 17 16 17 18 19 21 22 21 22 22 23 26 27 29 36 40 38 36 35 34 34 34 33 33 36 35 33 32 31 30 29 29 30 30 29 29 30
9 6 4 3 3 3 2 2 2 2 2 3 3 3 5 6 8 9 9 10 10 11 12 13 13 14 13 13 14 15 17 19 19 19 19 18 18 20 19 19 22 29 33 32 33 34 35 35 33 32 32 35 36 36 36 35 33 32 32 32 31 31 31
4 4 3 1 1 1 1 2 3 3 3 3 3 2 2 2 4 5 6 6 7 8 9 10 11 12 12 12 12 12 12 12 12 12 13 13 11 11 11 11 12 17 25 29 30 31 32 33 32 30 31 34 37 38 38 37 36 35 33 33 33 33 33
2 1 1 2 3 3 4 4 5 5 6 6 5 4 3 2 1 1 3 4 6 7 8 9 9 9 9 9 9 8 7 6 6 5 6 6 6 6 7 8 9 10 13 17 20 22 25 26 28 29 32 34 36 39 40 38 37 37 37 35 34 34 34
3 4 4 4 5 6 5 6 6 7 7 7 7 7 6 5 4 3 2 1 2 3 4 4 5 5 5 5 5 4 4 2 3 4 5 6 7 8 8 8 8 9 10 11 14 16 19 22 24 27 28 27 29 33 37 36 35 35 36 36 35 34 34
7 6 7 7 8 9 8 9 9 8 8 9 9 8 8 8 7 6 6 6 5 4 4 4 3 3 4 5 6 6 5 3 1 2 4 5 4 4 5 5 6 7 9 10 11 12 14 17 20 23 26 27 27 30 32 34 34 32 31 32 34 33 33
10 9 10 9 10 11 10 10 10 10 10 10 10 10 11 11 10 9 9 10 10 9 8 8 8 7 6 6 7 8 8 7 6 5 6 5 5 4 5 5 4 4 4 4 5 6 9 11 12 14 17 20 24 27 27 30 33 32 29 29 30 31 31
12 11 11 9 9 11 11 10 10 10 10 10 10 11 12 12 12 12 13 13 12 11 10 10 9 8 7 7 7 7 7 7 7 6 6 6 4 4 5 5 4 3 3 2 3 5 8 9 10 10 10 12 15 18 19 21 24 28 29 29 30 31 32
12 11 10 9 9 9 9 9 9 9 9 9 10 11 11 11 12 13 14 13 13 12 11 11 10 10 10 9 9 8 7 7 6 6 5 5 4 4 4 4 4 3 3 3 3 4 6 8 9 10 10 10 11 13 14 14 16 18 21 22 22 23 24
11 9 8 8 8 8 7 7 7 7 7 7 8 9 9 10 11 12 12 12 11 11 11 10 10 10 11 10 10 10 9 8 8 7 6 6 6 5 5 4 4 4 4 4 3 3 3 4 5 6 6 6 6 6 7 7 8 10 12 14 15 17 18
10 8 7 6 6 6 6 5 6 6 6 6 6 7 7 8 9 9 10 10 10 10 10 10 10 10 10 10 9 9 8 8 7 7 6 6 5 5 5 5 4 4 4 4 3 3 3 4 5 6 6 6 6 7 6 4 3 5 7 9 12 14 15
10 9 8 6 6 6 5 5 5 5 5 5 5 6 6 6 7 7 7 8 8 8 8 8 9 9 9 8 8 8 7 7 7 7 6 6 6 6 6 5 5 5 5 4 4 3 3 4 5 6 7 7 7 7 7 6 5 5 5 6 7 8 9
10 9 9 8 7 6 5 5 4 4 3 3 4 4 4 4 5 5 5 5 6 6 6 6 7 7 7 7 7 7 7 6 6 7 7 7 7 7 7 7 7 7 6 6 6 5 5 5 5 6 7 7 8 8 7 7 7 7 7 8 8 8 8
Wind_Direction
207 212 213 206 202 204 201 201 203 199 201 204 202 200 198 197 198 198 197 197 197 198 199 201 202 203 202 201 202 206 208 206 202 201 203 207 210 211 214 217 220 223 225 228 229 231 233 233 234 236 236 236 236 235 235 238 238 240 240 240 246 246 245
207 213 216 208 203 206 202 200 204 203 204 205 203 201 200 199 200 199 198 198 197 197 199 201 204 206 206 207 208 209 212 214 210 207 207 211 214 216 219 222 225 228 229 231 233 234 237 239 238 241 243 242 242 240 240 243 243 245 247 247 250 250 250
208 215 222 214 204 205 203 201 203 204 205 206 204 203 202 200 200 200 200 199 198 198 198 201 204 207 209 211 213 213 214 216 215 213 214 216 219 220 223 226 227 231 233 235 238 240 242 244 243 244 246 247 247 245 244 247 247 248 250 251 253 254 253
211 216 219 213 207 207 204 201 203 204 205 206 205 205 203 200 198 199 201 201 201 200 198 200 204 207 211 213 215 216 215 216 214 215 217 218 221 223 225 229 232 234 237 239 241 242 244 246 247 246 245 247 248 249 249 251 252 253 254 254 254 255 257
215 217 211 208 210 211 206 203 204 204 203 203 205 207 205 201 198 196 201 204 204 203 199 199 204 207 211 214 216 217 217 218 216 215 219 222 225 227 228 230 233 236 239 241 243 244 245 247 249 249 249 249 251 252 254 256 257 258 258 258 258 258 259
216 216 213 210 209 207 205 206 206 204 202 200 203 207 204 202 201 197 201 205 205 206 202 200 204 207 210 212 216 219 218 220 220 219 222 225 228 232 233 233 234 236 239 241 244 245 246 248 249 252 253 253 253 254 257 259 259 261 260 259 260 260 259
217 213 216 214 207 202 201 204 206 204 203 199 199 206 203 201 202 200 202 206 206 208 207 206 208 210 211 212 215 219 221 223 225 225 226 229 231 233 236 237 237 237 239 240 243 245 246 248 248 250 253 253 254 255 257 259 259 260 262 261 260 260 259
213 207 212 210 206 203 200 202 205 205 207 203 197 203 205 201 203 204 204 206 207 209 208 208 211 213 214 216 218 219 222 225 227 229 230 232 234 235 237 240 241 241 243 244 245 247 248 249 248 248 250 251 252 252 253 256 258 259 261 262 263 262 259
206 204 208 205 203 202 200 202 205 205 209 205 193 196 202 200 202 205 206 207 210 213 211 206 211 217 215 217 222 223 223 225 227 232 234 234 237 238 240 242 243 243 245 247 249 249 247 247 248 247 247 247 248 249 250 253 255 257 260 261 261 262 261
208 210 217 211 205 201 199 202 205 205 206 202 194 196 199 199 203 206 207 208 210 214 214 208 211 219 218 218 223 227 227 226 227 230 235 238 240 240 241 243 245 246 245 245 248 250 248 246 245 246 247 245 245 247 248 250 253 254 256 259 259 258 258
208 213 227 224 212 204 199 199 202 203 201 197 198 202 201 200 205 207 209 212 213 215 214 211 213 218 220 220 223 227 229 229 230 229 230 233 237 241 243 243 245 248 248 245 244 247 249 248 246 246 246 246 245 246 247 248 251 252 252 254 257 257 256
217 220 224 227 217 206 200 197 196 197 197 196 201 206 204 204 207 208 209 212 215 218 218 216 218 223 226 225 226 230 230 231 233 232 230 230 230 232 238 243 246 249 250 247 244 244 248 251 250 248 248 247 245 246 247 247 248 249 250 251 253 255 255
230 233 219 211 207 198 192 191 190 191 195 197 202 207 208 209 211 212 213 214 216 218 219 219 221 226 231 232 234 236 235 236 239 240 239 239 236 230 230 235 240 245 248 249 247 243 244 251 255 253 251 249 247 247 247 247 246 246 246 247 249 251 253
218 231 215 182 174 176 178 184 186 188 195 200 204 208 209 213 215 215 215 216 218 219 220 221 222 226 233 235 236 239 240 240 243 246 247 248 248 243 239 237 235 237 239 240 244 248 245 246 253 257 255 250 249 248 249 249 249 248 247 245 245 247 250
206 211 204 168 154 163 175 185 190 195 203 209 213 212 212 214 215 216 216 216 219 221 223 224 224 226 232 236 237 240 242 242 243 246 249 251 252 252 251 248 244 243 239 230 230 241 247 245 248 254 256 254 250 249 251 253 252 250 248 244 242 244 248
217 206 199 168 153 155 163 179 193 209 219 222 222 220 218 218 218 218 219 219 221 223 225 227 227 228 231 235 238 242 244 245 244 244 247 251 254 255 254 250 248 249 249 243 232 232 238 244 247 251 255 257 256 252 251 252 253 253 252 249 245 244 246
224 198 191 182 159 146 140 137 149 196 222 226 225 223 221 222 224 224 224 224 225 227 228 231 232 232 233 235 239 242 244 245 246 247 249 250 253 256 256 254 250 247 251 256 256 250 243 241 244 249 252 255 258 256 252 249 249 253 259 261 258 252 249
227 191 179 179 168 158 157 158 161 180 204 208 211 221 224 224 223 223 225 227 229 230 232 234 235 237 239 239 240 243 244 245 245 247 249 250 251 253 254 256 255 252 252 255 261 264 258 247 241 243 246 251 254 253 252 252 250 249 252 255 257 257 254
220 203 175 172 176 175 175 181 188 192 193 185 172 170 198 218 221 224 229 233 235 237 238 239 240 242 244 244 243 242 243 244 244 245 246 247 247 248 250 252 252 254 257 257 259 263 262 257 250 242 237 241 245 244 246 253 257 256 255 252 250 251 252
188 196 172 168 182 188 183 186 195 198 197 196 190 173 159 173 199 214 224 230 235 239 241 243 245 247 248 248 247 245 246 247 247 246 245 245 245 246 247 249 250 251 254 256 259 260 260 260 260 252 238 235 243 245 247 252 255 254 257 255 249 247 248
179 198 186 180 193 201 194 195 202 203 202 206 211 208 198 195 203 213 223 230 235 238 241 243 245 246 247 248 249 250 250 250 249 248 245 245 246 246 247 248 249 250 250 251 253 253 253 256 260 259 248 240 245 250 252 253 254 253 256 258 256 253 252
230 243 226 213 220 222 214 215 220 220 217 215 215 218 219 219 222 227 232 236 239 240 241 243 244 246 247 248 251 254 254 254 255 253 249 247 247 248 248 249 249 249 248 247 246 245 247 250 252 255 255 249 248 250 251 253 256 257 257 258 258 257 256
269 271 249 239 243 244 240 236 234 233 231 228 226 227 229 231 232 235 236 237 239 240 240 242 245 248 250 252 255 258 259 260 261 261 258 254 251 248 248 248 248 247 245 244 244 242 243 245 245 249 255 253 250 251 254 255 257 259 260 260 259 258 258
274 286 267 255 254 255 256 254 252 250 244 238 234 234 237 239 239 241 243 244 246 246 247 248 249 251 254 256 257 260 262 263 263 262 260 256 253 250 248 247 246 243 241 242 243 242 241 241 240 243 250 253 252 253 256 257 259 263 264 262 261 259 259
269 288 281 273 266 262 265 266 267 266 260 252 246 242 244 249 250 249 248 249 252 253 253 254 255 255 256 258 259 261 263 263 262 261 258 255 254 253 251 250 248 243 240 240 241 241 241 240 237 239 245 250 254 256 258 260 265 267 267 266 264 262 261
265 282 294 294 281 273 276 275 270 273 275 270 263 257 258 264 269 270 267 261 257 254 253 253 254 256 258 259 261 261 261 262 264 264 262 261 258 253 253 257 253 245 240 242 243 243 244 243 239 238 242 247 252 256 259 262 265 268 269 270 269 268 267
260 282 296 294 279 275 289 294 303 323 308 293 286 274 266 265 269 274 276 270 260 252 249 247 246 248 252 255 258 260 263 267 270 269 269 269 266 259 263 275 267 247 239 243 250 251 251 250 244 240 241 245 249 254 257 257 260 264 268 269 270 271 272
261 292 300 302 327 33 48 39 31 34 35 31 25 -0 305 277 265 263 260 253 244 236 233 235 238 242 249 257 262 263 269 280 283 275 267 268 273 272 270 272 265 247 238 242 249 253 254 252 247 244 246 249 251 255 257 255 254 258 265 268 267 268 270
208 202 110 96 89 85 79 66 53 50 53 51 52 54 56 66 80 259 244 236 240 237 231 234 244 257 270 284 290 290 294 301 294 277 267 269 284 301 291 266 257 257 249 246 250 252 250 247 247 250 254 255 254 255 258 258 256 257 261 264 265 267 267
148 144 121 112 104 94 82 73 67 63 63 65 68 69 72 79 78 67 71 113 244 240 232 242 262 284 304 324 340 342 343 326 270 270 298 307 296 298 305 294 279 276 270 263 262 258 251 248 249 252 255 255 252 253 255 256 257 257 257 259 262 264 264
132 131 121 113 103 95 86 78 71 65 62 66 69 72 76 78 75 73 76 77 77 80 81 78 78 68 53 52 51 42 39 45 25 315 332 339 329 326 334 324 302 291 281 272 268 264 261 260 259 257 255 254 256 258 257 256 257 257 257 258 259 260 261
140 136 124 118 109 101 92 83 77 69 64 65 67 69 73 76 77 77 79 77 73 70 72 76 83 87 81 72 66 58 53 53 54 56 57 58 56 37 18 7 352 338 316 284 269 273 281 283 280 273 267 262 263 264 261 258 257 257 259 260 260 262 264
135 131 122 115 109 102 94 87 81 75 69 69 71 73 74 77 81 82 83 84 82 79 78 78 80 82 78 72 69 64 57 51 50 50 48 46 41 22 9 10 12 8 353 313 287 294 300 299 294 289 286 283 278 274 270 265 261 258 258 258 261 264 267
128 125 118 111 104 99 95 91 86 80 74 72 73 73 72 74 78 81 83 86 88 89 89 87 85 84 81 74 70 67 62 60 56 49 39 33 28 16 4 4 9 7 -0 348 331 321 314 306 300 294 291 292 293 289 283 278 272 266 262 261 264 267 268
125 123 120 113 107 101 96 93 88 81 75 70 69 70 70 68 71 75 75 76 79 82 83 82 81 80 79 76 74 70 67 68 67 63 58 53 50 47 38 31 31 31 27 28 29 24 7 346 332 325 321 321 323 321 306 286 274 271 268 264 265 263 261
130 130 129 123 116 111 106 99 95 89 82 74 69 67 65 64 66 67 65 63 62 63 63 62 63 64 64 63 64 62 59 58 58 57 55 51 49 50 46 43 45 49 50 52 54 43 29 15 3 356 354 352 353 356 357 349 310 284 272 263 259 258 257
144 144 143 142 140 133 124 117 112 103 91 81 71 60 55 51 50 50 51 51 50 48 46 44 44 45 45 44 43 42 41 38 35 31 27 25 24 22 21 23 23 24 27 31 29 23 12 4 359 354 348 344 344 346 346 342 333 318 301 286 278 277 280
153 151 151 152 151 148 146 144 137 125 110 97 78 58 49 43 33 28 28 31 34 35 33 31 30 28 25 20 18 18 18 16 15 11 6 4 3 0 -0 360 357 355 355 355 354 353 350 347 345 341 337 335 335 335 333 328 323 316 310 306 302 298 297
Height
3157 3160 3162 3165 3168 3170 3172 3174 3175 3177 3179 3180 3182 3184 3186 3187 3189 3190 3192 3193 3194 3196 3197 3199 3200 3201 3202 3204 3205 3206 3208 3209 3210 3211 3212 3213 3214 3215 3216 3217 3218 3219 3219 3220 3221 3221 3222 3222 3222 3223 3223 3223 3223 3224 3224 3224 3225 3225 3225 3225 3225 3226 3226
3155 3157 3159 3162 3165 3167 3169 3172 3174 3175 3177 3179 3181 3183 3185 3186 3188 3189 3190 3192 3193 3195 3196 3198 3199 3201 3202 3203 3204 3206 3207 3208 3210 3211 3211 3213 3214 3215 3216 3217 3217 3218 3219 3220 3220 3221 3221 3222 3222 3222 3223 3223 3223 3224 3224 3224 3224 3224 3224 3225 3225 3225 3225
3153 3155 3156 3160 3163 3165 3167 3169 3172 3173 3175 3177 3179 3181 3183 3185 3186 3188 3189 3191 3192 3194 3195 3197 3199 3200 3201 3203 3204 3205 3206 3208 3209 3210 3211 3212 3213 3214 3215 3216 3217 3218 3218 3219 3220 3220 3221 3221 3221 3222 3222 3223 3223 3223 3224 3224 3224 3224 3224 3224 3224 3224 3225
3152 3152 3154 3157 3160 3162 3165 3167 3169 3171 3174 3176 3178 3179 3181 3183 3185 3187 3189 3190 3191 3193 3194 3196 3198 3199 3201 3202 3203 3204 3206 3207 3208 3210 3211 3212 3213 3214 3214 3215 3216 3217 3218 3218 3219 3219 3220 3220 3221 3221 3222 3222 3222 3223 3223 3223 3224 3224 3224 3224 3224 3224 3224
3150 3151 3152 3154 3157 3159 3162 3164 3166 3169 3171 3174 3176 3177 3179 3182 3184 3186 3188 3189 3191 3192 3194 3195 3197 3198 3200 3201 3202 3204 3205 3206 3207 3209 3210 3211 3212 3213 3214 3215 3215 3216 3217 3218 3218 3219 3219 3220 3220 3221 3221 3221 3222 3222 3222 3223 3223 3223 3223 3223 3223 3224 3224
3149 3150 3150 3151 3154 3157 3160 3162 3164 3167 3169 3172 3174 3176 3178 3180 3182 3184 3186 3188 3190 3191 3192 3194 3195 3197 3198 3200 3201 3203 3204 3205 3206 3207 3209 3210 3211 3212 3213 3213 3214 3215 3216 3217 3217 3218 3218 3219 3219 3220 3220 3221 3221 3221 3222 3222 3222 3222 3222 3223 3223 3223 3223
3147 3148 3148 3150 3152 3154 3157 3160 3163 3165 3167 3170 3172 3174 3176 3179 3180 3183 3185 3187 3188 3190 3191 3193 3194 3196 3197 3199 3200 3201 3203 3204 3205 3206 3207 3208 3209 3210 3211 3212 3213 3214 3215 3216 3216 3217 3217 3218 3218 3219 3219 3220 3220 3220 3221 3221 3221 3221 3221 3222 3222 3222 3223
3145 3146 3147 3149 3150 3152 3154 3157 3160 3163 3165 3167 3170 3172 3174 3176 3178 3181 3183 3185 3186 3188 3190 3191 3193 3194 3196 3197 3199 3200 3201 3203 3204 3205 3206 3207 3208 3209 3210 3211 3212 3213 3214 3214 3215 3215 3216 3216 3217 3217 3218 3218 3219 3219 3220 3220 3220 3220 3220 3221 3221 3221 3222
3145 3146 3148 3149 3149 3150 3152 3155 3157 3160 3163 3165 3167 3169 3172 3174 3176 3179 3181 3183 3185 3186 3188 3189 3191 3193 3194 3196 3197 3199 3200 3201 3202 3204 3205 3206 3207 3208 3209 3210 3210 3211 3212 3213 3214 3214 3214 3215 3215 3216 3216 3217 3217 3217 3218 3218 3219 3219 3219 3219 3220 3220 3220
3144 3144 3146 3147 3147 3146 3148 3150 3153 3155 3159 3162 3164 3167 3170 3172 3174 3177 3179 3181 3183 3185 3186 3188 3190 3191 3192 3194 3196 3197 3198 3200 3201 3202 3203 3205 3206 3207 3208 3208 3209 3210 3210 3211 3212 3212 3212 3213 3213 3213 3214 3215 3215 3215 3216 3217 3217 3217 3218 3218 3218 3219 3219
3141 3141 3142 3143 3143 3142 3142 3144 3148 3153 3156 3160 3163 3165 3168 3171 3174 3176 3178 3180 3182 3183 3185 3187 3189 3190 3191 3193 3194 3195 3197 3198 3199 3200 3201 3203 3204 3205 3207 3207 3208 3208 3209 3210 3210 3210 3211 3210 3211 3211 3212 3213 3213 3213 3214 3215 3215 3216 3216 3216 3217 3217 3217
3139 3139 3138 3138 3138 3138 3139 3142 3146 3151 3156 3159 3162 3164 3167 3170 3172 3174 3177 3178 3180 3182 3184 3186 3188 3189 3190 3191 3192 3193 3195 3196 3197 3198 3199 3200 3201 3203 3204 3205 3206 3206 3206 3207 3208 3209 3209 3209 3209 3209 3210 3211 3212 3212 3212 3213 3213 3214 3214 3215 3215 3215 3215
3138 3138 3138 3137 3136 3136 3139 3143 3146 3150 3154 3158 3160 3162 3165 3168 3170 3173 3175 3177 3179 3180 3182 3184 3186 3187 3188 3190 3191 3191 3193 3194 3195 3196 3198 3199 3200 3200 3201 3202 3204 3204 3205 3205 3205 3206 3207 3207 3207 3207 3208 3209 3210 3210 3211 3211 3211 3211 3212 3212 3213 3213 3214
3137 3139 3138 3138 3138 3137 3140 3144 3147 3150 3154 3156 3158 3161 3163 3166 3168 3170 3172 3175 3176 3178 3180 3182 3184 3185 3186 3187 3189 3189 3190 3192 3193 3194 3196 3197 3198 3200 3200 3200 3200 3201 3202 3202 3203 3204 3205 3205 3206 3206 3206 3207 3208 3208 3209 3209 3209 3209 3209 3210 3210 3211 3211
3138 3139 3139 3139 3140 3140 3142 3145 3148 3151 3154 3156 3158 3160 3162 3164 3165 3167 3169 3172 3173 3175 3177 3179 3180 3182 3183 3184 3186 3187 3188 3189 3191 3192 3193 3193 3195 3197 3199 3200 3199 3199 3199 3198 3198 3200 3202 3203 3204 3204 3205 3205 3206 3207 3207 3207 3207 3206 3206 3206 3207 3208 3208
3140 3140 3140 3139 3140 3142 3144 3146 3149 3151 3153 3155 3157 3159 3160 3162 3164 3166 3168 3169 3171 3173 3174 3176 3177 3179 3180 3181 3183 3184 3184 3186 3188 3189 3189 3190 3191 3193 3195 3196 3197 3198 3199 3199 3197 3196 3198 3199 3201 3203 3204 3204 3204 3205 3205 3204 3203 3202 3203 3205 3205 3205 3205
3141 3140 3139 3140 3140 3142 3145 3147 3149 3150 3151 3153 3155 3157 3159 3160 3162 3164 3166 3168 3169 3171 3172 3173 3175 3176 3178 3179 3180 3181 3181 3183 3185 3185 3186 3187 3188 3190 3191 3192 3194 3195 3197 3198 3198 3197 3197 3197 3199 3202 3203 3202 3202 3203 3202 3200 3199 3200 3202 3204 3205 3204 3204
3140 3137 3137 3140 3141 3141 3144 3146 3148 3149 3149 3150 3153 3154 3156 3158 3160 3162 3164 3166 3167 3168 3170 3171 3172 3173 3175 3176 3177 3177 3177 3179 3181 3181 3182 3183 3185 3186 3187 3188 3190 3191 3192 3194 3195 3197 3197 3197 3198 3199 3200 3201 3201 3200 3196 3195 3197 3199 3200 3201 3202 3203 3203
3140 3138 3137 3139 3141 3141 3143 3146 3147 3148 3149 3150 3151 3152 3154 3157 3158 3160 3162 3164 3165 3166 3168 3169 3170 3171 3172 3173 3173 3173 3173 3175 3176 3177 3178 3179 3180 3182 3183 3184 3185 3186 3188 3189 3191 3193 3194 3196 3197 3196 3196 3197 3196 3192 3191 3193 3196 3199 3199 3199 3199 3200 3201
3141 3139 3138 3139 3142 3142 3143 3145 3146 3147 3149 3150 3150 3151 3153 3155 3157 3157 3159 3161 3162 3164 3165 3166 3166 3167 3168 3169 3169 3170 3170 3170 3171 3172 3174 3175 3176 3177 3178 3179 3181 3182 3183 3185 3187 3188 3190 3193 3195 3195 3195 3195 3192 3189 3192 3195 3196 3197 3198 3197 3197 3198 3198
3139 3139 3139 3141 3143 3143 3143 3144 3146 3147 3148 3149 3150 3151 3152 3154 3155 3156 3157 3158 3160 3161 3162 3162 3163 3164 3164 3165 3166 3166 3166 3166 3167 3168 3170 3171 3172 3173 3174 3175 3177 3178 3179 3180 3182 3184 3186 3188 3190 3192 3192 3193 3192 3191 3192 3194 3194 3195 3196 3196 3196 3196 3196
3138 3138 3139 3141 3143 3143 3144 3145 3146 3147 3148 3148 3149 3150 3152 3153 3154 3155 3156 3157 3158 3159 3159 3160 3160 3161 3162 3162 3162 3162 3162 3163 3164 3165 3166 3167 3168 3169 3170 3172 3173 3174 3174 3176 3177 3180 3182 3184 3186 3188 3188 3189 3189 3189 3189 3191 3192 3193 3193 3194 3194 3194 3194
3138 3139 3139 3141 3142 3143 3144 3144 3145 3146 3147 3148 3149 3150 3151 3152 3153 3154 3155 3155 3156 3157 3157 3158 3158 3159 3159 3159 3160 3160 3160 3160 3161 3161 3162 3163 3163 3164 3165 3167 3168 3169 3170 3171 3173 3175 3177 3179 3182 3184 3185 3185 3185 3186 3187 3188 3189 3190 3191 3191 3191 3191 3191
3139 3140 3140 3141 3142 3142 3143 3144 3144 3145 3146 3147 3148 3149 3149 3150 3151 3152 3153 3153 3154 3154 3155 3155 3156 3156 3156 3156 3156 3157 3157 3157 3157 3157 3158 3157 3158 3159 3161 3162 3162 3163 3164 3166 3168 3171 3173 3175 3178 3180 3180 3181 3182 3183 3184 3185 3186 3187 3188 3188 3188 3188 3189
3140 3141 3140 3141 3142 3142 3143 3144 3144 3145 3146 3146 3147 3148 3148 3148 3149 3149 3150 3151 3152 3152 3152 3153 3153 3153 3153 3153 3154 3154 3154 3153 3153 3154 3154 3154 3155 3156 3157 3157 3157 3158 3159 3161 3164 3167 3169 3171 3173 3175 3176 3178 3179 3179 3180 3182 3183 3184 3184 3184 3185 3186 3186
3140 3141 3141 3141 3142 3142 3143 3144 3144 3145 3145 3146 3146 3147 3147 3147 3147 3147 3148 3149 3149 3149 3150 3150 3150 3150 3151 3151 3151 3151 3151 3151 3151 3152 3152 3152 3153 3154 3154 3153 3153 3153 3156 3160 3162 3164 3165 3167 3169 3171 3173 3174 3175 3176 3177 3179 3180 3180 3180 3181 3181 3182 3182
3141 3142 3142 3142 3142 3143 3144 3144 3145 3145 3146 3146 3146 3146 3146 3147 3147 3146 3146 3147 3147 3147 3147 3147 3148 3148 3149 3149 3149 3149 3149 3149 3149 3150 3150 3150 3152 3152 3152 3152 3151 3152 3155 3159 3160 3161 3162 3164 3166 3168 3169 3171 3172 3172 3173 3175 3176 3176 3177 3177 3178 3179 3179
3141 3141 3142 3142 3143 3144 3144 3144 3145 3145 3145 3145 3145 3145 3146 3146 3146 3146 3146 3146 3146 3146 3146 3146 3147 3147 3147 3148 3148 3148 3148 3148 3148 3149 3149 3149 3150 3150 3150 3150 3151 3151 3154 3156 3158 3159 3159 3161 3163 3165 3166 3168 3169 3170 3170 3171 3172 3173 3174 3174 3174 3175 3175
3141 3142 3142 3143 3143 3144 3144 3144 3145 3145 3145 3145 3145 3145 3145 3145 3146 3146 3146 3146 3146 3146 3146 3146 3146 3146 3146 3146 3147 3147 3147 3147 3147 3148 3148 3148 3148 3148 3148 3149 3150 3151 3152 3154 3155 3156 3156 3158 3160 3162 3163 3164 3165 3166 3167 3168 3169 3170 3170 3171 3171 3171 3172
3141 3142 3143 3143 3143 3144 3144 3145 3145 3145 3145 3145 3145 3145 3145 3146 3146 3145 3145 3146 3146 3146 3146 3146 3145 3145 3146 3146 3146 3147 3147 3147 3147 3147 3147 3147 3147 3147 3148 3148 3149 3150 3151 3152 3153 3154 3155 3156 3157 3159 3160 3160 3161 3162 3163 3164 3166 3166 3167 3167 3168 3168 3169
3142 3142 3143 3143 3144 3144 3145 3145 3145 3145 3145 3145 3145 3146 3146 3146 3146 3146 3146 3146 3146 3146 3146 3146 3146 3146 3146 3146 3147 3147 3147 3147 3147 3147 3147 3147 3147 3147 3148 3148 3148 3149 3149 3150 3151 3152 3153 3154 3155 3156 3157 3157 3158 3159 3160 3161 3161 3162 3163 3164 3164 3165 3165
3142 3143 3144 3144 3145 3145 3146 3146 3146 3146 3146 3146 3146 3146 3147 3147 3147 3147 3147 3146 3147 3147 3147 3147 3147 3147 3147 3147 3148 3148 3148 3147 3147 3147 3147 3147 3147 3148 3148 3148 3148 3148 3149 3150 3150 3151 3151 3152 3153 3154 3155 3155 3155 3156 3156 3156 3157 3158 3160 3160 3161 3161 3162
3143 3144 3145 3146 3146 3146 3147 3147 3147 3147 3147 3147 3147 3147 3148 3148 3148 3148 3148 3148 3148 3148 3148 3148 3148 3148 3148 3148 3148 3148 3148 3148 3148 3148 3148 3148 3148 3148 3149 3149 3148 3148 3149 3149 3150 3151 3151 3151 3152 3152 3153 3153 3153 3153 3153 3154 3154 3155 3156 3157 3158 3158 3159
3144 3145 3146 3146 3146 3147 3147 3148 3148 3148 3148 3148 3148 3148 3149 3149 3149 3149 3149 3150 3149 3149 3149 3149 3149 3149 3148 3149 3149 3149 3149 3148 3148 3148 3148 3149 3149 3149 3149 3149 3149 3149 3149 3149 3150 3150 3150 3150 3151 3151 3152 3152 3152 3152 3152 3152 3152 3152 3153 3154 3155 3156 3156
3145 3146 3146 3146 3147 3147 3148 3148 3148 3149 3149 3149 3149 3149 3149 3149 3149 3149 3150 3150 3150 3150 3150 3150 3150 3150 3150 3150 3150 3150 3150 3149 3149 3149 3149 3149 3149 3149 3149 3150 3150 3150 3150 3150 3150 3150 3150 3151 3151 3151 3151 3151 3151 3151 3150 3150 3150 3150 3151 3152 3153 3154 3154
3145 3146 3146 3147 3147 3148 3148 3149 3149 3149 3150 3150 3150 3150 3150 3150 3150 3150 3150 3150 3150 3151 3151 3151 3151 3151 3151 3151 3151 3151 3151 3151 3151 3151 3151 3151 3151 3151 3151 3150 3150 3150 3150 3150 3151 3151 3151 3151 3151 3151 3151 3151 3151 3151 3150 3150 3150 3150 3150 3151 3151 3152 3152
3144 3145 3146 3147 3148 3148 3149 3150 3150 3150 3150 3151 3151 3151 3151 3151 3151 3150 3151 3151 3151 3151 3151 3151 3151 3151 3151 3151 3151 3151 3151 3151 3151 3151 3151 3151 3151 3151 3151 3151 3151 3151 3151 3151 3151 3151 3151 3151 3151 3151 3151 3151 3151 3150 3150 3150 3150 3150 3150 3150 3150 3151 3151
3145 3146 3147 3147 3148 3149 3150 3150 3151 3151 3151 3151 3152 3152 3151 3151 3151 3151 3151 3151 3151 3151 3151 3151 3151 3151 3151 3151 3151 3151 3151 3151 3151 3151 3151 3151 3151 3151 3151 3151 3151 3151 3151 3151 3150 3150 3151 3151 3151 3151 3151 3151 3151 3150 3150 3150 3150 3150 3150 3150 3150 3150 3150